Powrót do katalogu

BREEZE-M R/B

AktywnyHEO
NORAD 44626·ROCKET BODY·🇷🇺 Russia

Wystrzelony Oct 9, 2019 z Baikonur Cosmodrome

Loading…

Następne Przeloty (najbliższe 24 godziny)

TLE

ŚwieżeSource: Space-Track

Epoka: Sep 14, 2026, 06:17 UTC

1 44626U 19067C   26257.26204366 -.00000157  00000-0  00000-0 0  9990
2 44626  24.3575  56.2181 6456734  20.7603 356.3881  0.93850209 21931

Śledź BREEZE-M R/B w czasie rzeczywistym z AllMySat

Download on the App Store